User: anonymous
Location: DaltonSkyGazer Observatory
(42.4858°N, 73.1565°W)
Time: 06:33:38
(UTC-04:00)
Language:

Helios 1B - Orbit

View from above orbital plane
View from above orbital plane
View from above satellite
View from above satellite

Ground track
Ground track

The orbit data is extracted from the following two-line orbital elements,

1 25977U 99064A   14206.13733345  .00000392  00000-0  58576-4 0  3139
2 25977 098.1643 284.2207 0002585 108.5031 309.9912 14.80346388787343
Epoch (UTC): 25 July 2014 03:17:45
Eccentricity: 0.0002585
inclination: 98.1643°
perigee height: 626 km
apogee height: 630 km
right ascension of ascending node: 284.2207°
argument of perigee: 108.5031°
revolutions per day: 14.80346388
mean anomaly at epoch: 309.9912°
orbit number at epoch: 78734

The dashed part of the orbit path shows where the satellite is in the earth's shadow,  

DLR